Weather History for New Castle, PA

Change the Weather History Date:

Saturday, December 7, 2013

  Actual Average Record
Temperature  
Mean Temperature 20 °F -  
Max Temperature 26 °F 41 °F 65 °F (1956)
Min Temperature 13 °F 26 °F 5 °F (1926)
Degree Days  
Heating Degree Days 44    
Moisture  
Dew Point 16 °F    
Average Humidity 75    
Maximum Humidity 88    
Minimum Humidity 64    
Precipitation  
Precipitation 0.00 in - - ()
Sea Level Pressure  
Sea Level Pressure 30.53 in    
Wind  
Wind Speed 5 mph (NW)    
Max Wind Speed 9 mph    
Max Gust Speed -    
Visibility 10 miles    
Events Snow    
Averages and records for this station are not official NWS values.
T = Trace of Precipitation, MM = Missing Value Source: NWS Daily Summary

Daily Weather History Graph

Daily Weather History Graph

Search for Another Location

Airport:

Trip Planner

Search our weather history database for the weather conditions in past years. The results will help you decide how hot, cold, wet, or windy it might be!

Date:

Astronomy

Dec. 07, 2013 Rise Set
Actual Time 7:33 AM EST 4:53 PM EST
Civil Twilight 7:02 AM EST 5:24 PM EST
Nautical Twilight 6:27 AM EST 5:58 PM EST
Astronomical Twilight 5:54 AM EST 6:31 PM EST
Moon 11:15 AM EST (12/7) 10:34 PM EST (12/7)
Length of Visible Light 10h 21m
Length of Day
9h 19m
Waxing Crescent, 29% of the Moon is Illuminated
Dec 7
Waxing Crescent
Dec 9
First Quarter
Dec 17
Full
Dec 25
Last Quarter
Jan 1
New

Hourly Weather History & Observations

Time (EST) Temp. Windchill Dew Point Humidity Pressure Visibility Wind Dir Wind Speed Gust Speed Precip Events Conditions
12:56 AM 26.6 °F 19.1 °F 23.0 °F 86% 30.29 in 10.0 mi NNW 6.9 mph - N/A   Mostly Cloudy
1:25 AM 26.6 °F 21.2 °F 23.0 °F 86% 30.30 in 10.0 mi North 4.6 mph - 0.00 in Snow Light Snow
1:46 AM 26.6 °F 21.2 °F 23.0 °F 86% 30.30 in 10.0 mi NW 4.6 mph - 0.00 in Snow Light Snow
1:56 AM 26.1 °F 18.4 °F 23.0 °F 88% 30.39 in 10.0 mi NW 6.9 mph - 0.00 in   Mostly Cloudy
2:34 AM 26.6 °F 19.1 °F 21.2 °F 80% 30.31 in 10.0 mi NW 6.9 mph - 0.00 in Snow Light Snow
2:56 AM 25.2 °F 18.3 °F 21.0 °F 84% 30.41 in 10.0 mi NW 5.8 mph - 0.00 in   Mostly Cloudy
3:56 AM 24.8 °F 19.1 °F 21.2 °F 86% 30.34 in 10.0 mi WNW 4.6 mph - N/A   Overcast
4:56 AM 25.2 °F 20.9 °F 21.0 °F 84% 30.45 in 10.0 mi WNW 3.5 mph - 0.00 in   Overcast
5:56 AM 25.2 °F 17.3 °F 20.1 °F 81% 30.48 in 10.0 mi NW 6.9 mph - N/A   Overcast
6:56 AM 25.2 °F 16.5 °F 19.0 °F 78% 30.51 in 10.0 mi NW 8.1 mph - N/A   Overcast
7:56 AM 25.2 °F 18.3 °F 18.1 °F 75% 30.54 in 10.0 mi NW 5.8 mph - N/A   Overcast
8:56 AM 24.1 °F 16.0 °F 17.1 °F 75% 30.57 in 10.0 mi NNW 6.9 mph - N/A   Overcast
9:56 AM 24.1 °F 15.2 °F 17.1 °F 75% 30.58 in 10.0 mi NW 8.1 mph - N/A   Overcast
10:56 AM 24.1 °F 15.2 °F 14.0 °F 65% 30.60 in 10.0 mi West 8.1 mph - N/A   Mostly Cloudy
11:34 AM 24.8 °F 15.3 °F 14.0 °F 64% 30.51 in 10.0 mi NW 9.2 mph - N/A   Mostly Cloudy
11:46 AM 24.8 °F 16.1 °F 15.8 °F 69% 30.50 in 10.0 mi NW 8.1 mph - 0.00 in Snow Light Snow
11:56 AM 24.1 °F 18.2 °F 15.1 °F 69% 30.59 in 10.0 mi West 4.6 mph - 0.00 in Snow Light Snow
12:56 PM 23.0 °F 13.9 °F 17.6 °F 80% 30.50 in 9.0 mi West 8.1 mph - N/A Snow Light Snow
1:56 PM 24.1 °F 14.4 °F 14.0 °F 65% 30.59 in 10.0 mi NW 9.2 mph - 0.00 in   Overcast
2:56 PM 23.0 °F 13.1 °F 14.0 °F 68% 30.59 in 10.0 mi WNW 9.2 mph - N/A   Overcast
3:56 PM 22.1 °F 13.7 °F 12.0 °F 65% 30.61 in 10.0 mi NNW 6.9 mph - N/A   Mostly Cloudy
4:04 PM 21.2 °F 11.7 °F 12.2 °F 68% 30.51 in 10.0 mi NNW 8.1 mph - N/A   Scattered Clouds
4:56 PM 20.1 °F - 11.1 °F 68% 30.62 in 10.0 mi Calm Calm - N/A   Clear
5:56 PM 20.1 °F - 11.1 °F 68% 30.64 in 10.0 mi Calm Calm - N/A   Mostly Cloudy
6:56 PM 20.1 °F - 11.1 °F 68% 30.65 in 10.0 mi Calm Calm - N/A   Overcast
7:07 PM 19.4 °F - 10.4 °F 68% 30.55 in 10.0 mi Calm Calm - N/A   Overcast
7:56 PM 19.0 °F - 11.1 °F 71% 30.67 in 10.0 mi Calm Calm - N/A   Mostly Cloudy
8:04 PM 19.4 °F - 10.4 °F 68% 30.57 in 10.0 mi Calm Calm - N/A   Scattered Clouds
8:56 PM 17.1 °F - 11.1 °F 77% 30.67 in 10.0 mi Calm Calm - N/A   Clear
9:56 PM 16.2 °F - 10.0 °F 77% 30.68 in 10.0 mi Calm Calm - N/A   Clear
10:56 PM 15.1 °F - 11.1 °F 84% 30.69 in 10.0 mi Calm Calm - N/A   Overcast
11:56 PM 13.1 °F - 10.0 °F 88% 30.69 in 10.0 mi Calm Calm - N/A   Clear